Change the Weather History Date:

Wednesday, April 24, 2013

  Actual Average Record
Temperature  
Mean Temperature 40 °F -  
Max Temperature 47 °F 60 °F 71 °F (1998)
Min Temperature 34 °F 38 °F 28 °F (1999)
Degree Days  
Heating Degree Days 24    
Moisture  
Dew Point 36 °F    
Average Humidity 89    
Maximum Humidity 99    
Minimum Humidity 62    
Precipitation  
Precipitation 0.00 in - - ()
Sea Level Pressure  
Sea Level Pressure 29.89 in    
Wind  
Wind Speed 9 mph (NW)    
Max Wind Speed 16 mph    
Max Gust Speed 23 mph    
Visibility 6 miles    
Events Rain , Snow    
Averages and records for this station are not official NWS values.
T = Trace of Precipitation, MM = Missing Value Source: NWS Daily Summary

Daily Weather History Graph

Daily Weather History Graph

Search for Another Location

Airport or City:

Trip Planner

Search our weather history database for the weather conditions in past years. The results will help you decide how hot, cold, wet, or windy it might be!

Date:

Astronomy

Apr. 24, 2013 Rise Set
Actual Time 6:40 AM EDT 8:28 PM EDT
Civil Twilight 6:10 AM EDT 8:58 PM EDT
Nautical Twilight 5:33 AM EDT 9:35 PM EDT
Astronomical Twilight 4:54 AM EDT 10:15 PM EDT
Moon 7:30 PM EDT (4/24) 5:44 AM EDT (4/24)
Length of Visible Light 14h 48m
Length of Day
13h 48m
Waxing Gibbous, 98% of the Moon is Illuminated
Apr 24
Waxing Gibbous
Apr 25
Full
May 2
Last Quarter
May 9
New
May 18
First Quarter

Hourly Weather History & Observations

Time (EDT) Temp. Windchill Dew Point Humidity Pressure Visibility Wind Dir Wind Speed Gust Speed Precip Events Conditions
12:15 AM 47.5 °F - 46.6 °F 97% 29.82 in 7.0 mi NNW 12.7 mph 18.4 mph N/A Rain Rain
12:35 AM 47.7 °F - 46.6 °F 96% 29.81 in 5.0 mi NNW 5.8 mph - N/A Rain Heavy Rain
12:55 AM 46.9 °F - 46.4 °F 98% 29.80 in 7.0 mi North 5.8 mph - N/A Rain Light Rain
1:15 AM 46.6 °F - 45.9 °F 97% 29.80 in 10.0 mi North 3.5 mph - N/A Rain Light Rain
1:35 AM 46.4 °F 41.9 °F 45.5 °F 97% 29.81 in 10.0 mi NW 9.2 mph - N/A Rain Light Rain
1:55 AM 46.2 °F 43.3 °F 45.5 °F 97% 29.79 in 10.0 mi North 5.8 mph - N/A Rain Rain
2:15 AM 44.2 °F 40.3 °F 43.7 °F 98% 29.79 in 10.0 mi NNW 6.9 mph 17.3 mph N/A Rain Light Rain
2:34 AM 43.7 °F 38.6 °F 42.8 °F 97% 29.79 in 5.0 mi NNW 9.2 mph - N/A Rain Rain
2:55 AM 42.8 °F 38.6 °F 42.3 °F 98% 29.78 in 4.0 mi North 6.9 mph 17.3 mph N/A Rain Rain
3:15 AM 41.9 °F 35.9 °F 41.0 °F 97% 29.80 in 4.0 mi NNW 10.4 mph 16.1 mph N/A   Heavy Drizzle
3:34 AM 40.5 °F 34.6 °F 40.1 °F 99% 29.80 in 4.0 mi North 9.2 mph - N/A Rain Light Rain
3:55 AM 40.1 °F 34.1 °F 39.4 °F 97% 29.78 in 4.0 mi North 9.2 mph 19.6 mph N/A Rain Light Rain
4:15 AM 39.6 °F 33.5 °F 39.2 °F 99% 29.79 in 5.0 mi NNW 9.2 mph 19.6 mph N/A Rain Light Rain
4:34 AM 39.0 °F 32.3 °F 38.5 °F 98% 29.81 in 4.0 mi NNW 10.4 mph 19.6 mph N/A   Drizzle
4:55 AM 38.8 °F 32.6 °F 38.3 °F 98% 29.80 in 3.0 mi NNW 9.2 mph - N/A   Drizzle
5:15 AM 38.5 °F 31.6 °F 38.1 °F 99% 29.82 in 3.0 mi NNW 10.4 mph 18.4 mph N/A   Drizzle
5:35 AM 38.3 °F 31.4 °F 37.8 °F 98% 29.82 in 2.5 mi NNW 10.4 mph - N/A Rain Rain
5:55 AM 37.4 °F 31.4 °F 36.9 °F 98% 29.83 in 3.0 mi North 8.1 mph 18.4 mph N/A   Light Drizzle
6:15 AM 36.9 °F 30.1 °F 36.5 °F 99% 29.82 in 4.0 mi NNW 9.2 mph - N/A   Light Drizzle
6:35 AM 36.1 °F 29.9 °F 35.8 °F 99% 29.83 in 4.0 mi North 8.1 mph - N/A   Light Drizzle
6:55 AM 36.0 °F 29.6 °F 35.6 °F 99% 29.83 in 7.0 mi North 8.1 mph - N/A   Overcast
7:15 AM 36.1 °F 28.2 °F 35.6 °F 98% 29.85 in 7.0 mi NNW 11.5 mph 16.1 mph N/A   Overcast
7:35 AM 35.2 °F 28.1 °F 34.7 °F 98% 29.85 in 3.0 mi North 9.2 mph - N/A   Light Drizzle
7:55 AM 34.7 °F 26.4 °F 34.2 °F 98% 29.85 in 2.5 mi North 11.5 mph - N/A   Light Drizzle
8:14 AM 34.3 °F 27.7 °F 33.8 °F 98% 29.86 in 3.0 mi NNW 8.1 mph - N/A   Drizzle
8:35 AM 34.7 °F 28.8 °F 34.2 °F 98% 29.85 in 3.0 mi North 6.9 mph - N/A   Light Drizzle
8:55 AM 35.1 °F 30.1 °F 34.7 °F 99% 29.85 in 4.0 mi NNW 5.8 mph - N/A   Light Drizzle
9:14 AM 34.9 °F 27.7 °F 34.5 °F 99% 29.85 in 3.0 mi North 9.2 mph 16.1 mph N/A Rain Light Rain
9:35 AM 35.2 °F 28.8 °F 34.7 °F 98% 29.85 in 3.0 mi NNW 8.1 mph - N/A   Light Drizzle
9:55 AM 35.1 °F 26.4 °F 34.5 °F 98% 29.85 in 4.0 mi NNW 12.7 mph 17.3 mph N/A   Overcast
10:14 AM 34.7 °F 26.9 °F 33.8 °F 97% 29.83 in 3.0 mi NNW 10.4 mph - N/A   Drizzle
10:35 AM 35.1 °F 27.9 °F 34.2 °F 97% 29.85 in 1.8 mi NNW 9.2 mph - N/A Rain Rain
10:55 AM 34.9 °F 28.3 °F 34.0 °F 97% 29.84 in 2.5 mi NNW 8.1 mph 16.1 mph N/A Rain Light Rain
11:14 AM 35.6 °F 29.2 °F 34.7 °F 97% 29.85 in 3.0 mi NNW 8.1 mph - N/A Rain Light Rain
11:35 AM 35.6 °F 29.2 °F 34.7 °F 97% 29.85 in 3.0 mi NW 8.1 mph - N/A Rain Light Rain
11:55 AM 35.8 °F 29.4 °F 34.2 °F 94% 29.87 in 5.0 mi NNW 8.1 mph - N/A Snow Light Snow
12:15 PM 36.5 °F 28.7 °F 34.2 °F 91% 29.88 in 3.0 mi NW 11.5 mph 19.6 mph N/A Snow Light Snow
12:35 PM 36.1 °F 26.9 °F 34.2 °F 93% 29.87 in 1.0 mi NW 15.0 mph 20.7 mph N/A Snow Light Snow
12:55 PM 36.7 °F 28.0 °F 34.9 °F 93% 29.86 in 2.0 mi NW 13.8 mph 17.3 mph N/A Snow Light Snow
1:15 PM 35.6 °F 27.1 °F 34.3 °F 95% 29.88 in 1.2 mi NW 12.7 mph 17.3 mph N/A Snow Light Snow
1:35 PM 36.1 °F 29.9 °F 35.1 °F 96% 29.88 in 1.8 mi NW 8.1 mph - N/A Snow Light Snow
1:55 PM 36.3 °F 28.4 °F 35.6 °F 97% 29.88 in 2.5 mi WNW 11.5 mph - N/A Snow Light Snow
2:15 PM 36.9 °F 29.1 °F 35.8 °F 96% 29.89 in 5.0 mi WNW 11.5 mph - N/A Rain Light Rain
2:35 PM 37.2 °F 31.2 °F 36.3 °F 97% 29.89 in 5.0 mi West 8.1 mph - N/A Snow Light Snow
2:54 PM 37.4 °F 31.4 °F 36.3 °F 96% 29.89 in 5.0 mi WNW 8.1 mph - N/A Rain Light Rain
3:15 PM 37.4 °F 28.5 °F 36.5 °F 97% 29.90 in 5.0 mi West 15.0 mph - N/A Snow Light Snow
3:35 PM 37.9 °F 30.0 °F 37.0 °F 97% 29.91 in 5.0 mi West 12.7 mph - N/A Rain Light Rain
3:54 PM 38.3 °F 31.4 °F 37.0 °F 95% 29.92 in 7.0 mi West 10.4 mph 16.1 mph N/A   Light Drizzle
4:15 PM 38.7 °F 31.8 °F 37.0 °F 94% 29.92 in 10.0 mi West 10.4 mph - N/A   Overcast
4:34 PM 39.6 °F 31.3 °F 36.5 °F 89% 29.93 in 10.0 mi West 15.0 mph - N/A   Overcast
4:55 PM 40.1 °F 31.6 °F 34.7 °F 81% 29.93 in 10.0 mi West 16.1 mph 19.6 mph N/A   Overcast
5:15 PM 40.5 °F 32.5 °F 34.5 °F 79% 29.95 in 10.0 mi West 15.0 mph 18.4 mph N/A   Overcast
5:35 PM 41.0 °F 34.3 °F 33.4 °F 74% 29.95 in 10.0 mi West 11.5 mph 20.7 mph N/A   Overcast
5:55 PM 41.9 °F 35.9 °F 33.6 °F 72% 29.95 in 10.0 mi WNW 10.4 mph - N/A   Mostly Cloudy
6:14 PM 42.6 °F 35.9 °F 33.6 °F 70% 29.97 in 10.0 mi West 12.7 mph - N/A   Overcast
6:35 PM 42.8 °F 35.8 °F 32.2 °F 66% 29.97 in 10.0 mi West 13.8 mph 18.4 mph N/A   Overcast
6:55 PM 42.6 °F 37.8 °F 31.3 °F 64% 29.98 in 10.0 mi West 8.1 mph - N/A   Mostly Cloudy
7:14 PM 43.9 °F 36.8 °F 31.6 °F 62% 29.98 in 10.0 mi West 15.0 mph - N/A   Mostly Cloudy
7:35 PM 43.2 °F 35.6 °F 32.5 °F 66% 29.99 in 10.0 mi West 16.1 mph 23.0 mph N/A   Mostly Cloudy
7:55 PM 41.7 °F 36.7 °F 32.5 °F 70% 30.00 in 10.0 mi WSW 8.1 mph 17.3 mph N/A   Scattered Clouds
8:14 PM 41.0 °F 35.2 °F 32.2 °F 71% 30.01 in 10.0 mi WSW 9.2 mph - N/A   Scattered Clouds
8:35 PM 40.6 °F 35.4 °F 32.0 °F 71% 30.02 in 10.0 mi WSW 8.1 mph - N/A   Scattered Clouds
8:55 PM 39.9 °F 33.9 °F 31.6 °F 72% 30.03 in 10.0 mi WSW 9.2 mph - N/A   Scattered Clouds
9:15 PM 38.8 °F 31.6 °F 30.4 °F 72% 30.05 in 10.0 mi WSW 11.5 mph - N/A   Clear
9:35 PM 37.8 °F 31.8 °F 29.3 °F 72% 30.06 in 10.0 mi WSW 8.1 mph - N/A   Clear
9:55 PM 37.4 °F 32.1 °F 28.8 °F 71% 30.07 in 10.0 mi WSW 6.9 mph - N/A   Clear
10:54 PM 36.7 °F 31.2 °F 28.2 °F 71% 30.10 in 10.0 mi WSW 6.9 mph - N/A   Clear
11:15 PM 36.5 °F 30.3 °F 28.0 °F 71% 30.10 in 10.0 mi WSW 8.1 mph - N/A   Clear
11:35 PM 36.5 °F 31.0 °F 27.9 °F 71% 30.11 in 10.0 mi WSW 6.9 mph - N/A   Clear
11:54 PM 35.8 °F 30.9 °F 27.5 °F 72% 30.11 in 10.0 mi SW 5.8 mph - N/A   Clear